Погода в Ямбурге

Россия / Ямало-Ненецкий автономный округ     67°55′28″N   74°55′20″E
темп.,
°C
ветер,
м/с
пор.,
м/с
влажн.,
%
обл.,
%
осадки,
мм/ч
давл.,
гПа
погр.,
м
17 августа, ср
ср1723:00+6ссз101488100 0.1 1011654
02:00+5ссз91591100 0.0 1011601
05:00+5ссз91594100 1.4 1010511
08:00+6с91595100 5.4 1010553
11:00+7с81493100 8.1 1012523
14:00+9с71288100 0.1 1014608
17:00+11с71182100 0.1 1015587
20:00+10с7138473 0.0 1016371
18 августа, чт
чт1823:00+7с6139043 0.0 1018239
02:00+8с71282100 0.0 1019274
05:00+6с6128645 0.0 1021238
08:00+9ссв68675 0.0 1022381
11:00+13с6853100 0.0 1023713
14:00+13с7847100 0.0 1023955
17:00+13ссз78516 0.0 10231077
20:00+8ссз6971100 0.0 1023213
19 августа, пт
пт1923:00+7ссз4873100 0.0 1023186
02:00+7ссз4676100 0.0 1022219
05:00+6сз3492100 0.4 1022164
08:00+7з3393100 0.1 1021157
11:00+8юз5890100 0.2 1019225
14:00+8юз71283100 0.0 1017212
17:00+10юз7117574 0.1 1015171
20:00+9з51091100 0.0 1013138
20 августа, сб
сб2023:00+10зсз71398100 2.6 1012369
02:00+8сз81495100 0.1 1012498
05:00+6ссз101693100 0.2 1012569
08:00+6ссз101592100 0.2 1013598
11:00+6ссз101691100 0.3 1015664
14:00+7ссз101589100 0.0 1015695
17:00+7с101695100 2.1 1017543
20:00+6с91594100 1.6 1019456
21 августа, вс
вс2123:00+6с81393100 2.8 1021452
02:00+6с6109298 0.2 1022482
05:00+4с6119257 0.2 1024364
08:00+7ссв7108141 0.0 1025554
11:00+11ссв68590 0.0 1026758
14:00+13с68473 0.0 1026935
17:00+13с5650100 0.0 1027907
20:00+8ссз4563100 0.0 102868